This is the latest recevied weather packets stored in our database for station/object OK1VCF-8. If no packets are shown the sender has not sent any weather packets the latest 10 day(s).
| Time | Temp. | Humidity | Pressure | Rain* | Wind** | Luminosity | Snow |
|---|---|---|---|---|---|---|---|
| 1777094330 | 6.67° C | 80% | 1016.8 hPa | - | - | - | - |
| 1777093892 | 6.11° C | 80% | 1016.8 hPa | - | - | - | - |
| 1777093454 | 5.56° C | 82% | 1016.8 hPa | - | - | - | - |
| 1777093016 | 5.56° C | 82% | 1016.8 hPa | - | - | - | - |
| 1777092578 | 5.56° C | 84% | 1016.8 hPa | - | - | - | - |
| 1777091976 | 5° C | 85% | 1016.7 hPa | - | - | - | - |
| 1777091538 | 4.44° C | 86% | 1016.6 hPa | - | - | - | - |
| 1777091099 | 4.44° C | 87% | 1016.8 hPa | - | - | - | - |
| 1777090662 | 4.44° C | 87% | 1016.8 hPa | - | - | - | - |
| 1777090226 | 4.44° C | 87% | 1016.6 hPa | - | - | - | - |
| 1777089788 | 3.89° C | 88% | 1016.7 hPa | - | - | - | - |
| 1777089349 | 4.44° C | 86% | 1016.7 hPa | - | - | - | - |
| 1777088912 | 4.44° C | 86% | 1016.8 hPa | - | - | - | - |
| 1777088475 | 4.44° C | 86% | 1016.8 hPa | - | - | - | - |
| 1777088037 | 4.44° C | 86% | 1017 hPa | - | - | - | - |
| 1777087600 | 4.44° C | 86% | 1017 hPa | - | - | - | - |
| 1777087163 | 4.44° C | 86% | 1017 hPa | - | - | - | - |
| 1777086725 | 4.44° C | 85% | 1017 hPa | - | - | - | - |
| 1777086288 | 4.44° C | 85% | 1017 hPa | - | - | - | - |
| 1777085849 | 5.56° C | 84% | 1017 hPa | - | - | - | - |
| 1777085248 | 5.56° C | 82% | 1017.2 hPa | - | - | - | - |
| 1777084810 | 5.56° C | 82% | 1017.2 hPa | - | - | - | - |
| 1777084374 | 6.11° C | 82% | 1017.4 hPa | - | - | - | - |
| 1777083937 | 6.11° C | 82% | 1017.4 hPa | - | - | - | - |
| 1777083502 | 6.11° C | 83% | 1017.4 hPa | - | - | - | - |
* Rain since midnight (hover to see other rain measurements)
** Current wind speed in m/s (hover to see current wind gust speed)